Regional Weather Roundup
Issued by NWS

Home | Current Version | Previous Version | Text Only | Print | Product List | Glossary Off
Versions: 1 2 3 4 5 6 7 8 9 10 11 12 13 14 15 16 17 18 19 20 21 22 23 24 25 26 27 28 29 30 31 32 33 34 35 36 37 38 39 40 41 42 43 44 45 46 47 48 49 50

324
ASUS44 KLIX 030601
RWRLA
LOUISIANA WEATHER ROUNDUP
NATIONAL WEATHER SERVICE NEW ORLEANS LA
1200 AM CST TUE MAR 03 2015

NOTE: "FAIR" INDICATES FEW OR NO CLOUDS BELOW 12,000 FEET WITH NO
      SIGNIFICANT WEATHER AND/OR OBSTRUCTIONS TO VISIBILITY.
      SKY/WX - SKY CONDITION AND SIGNIFICANT WEATHER.
      TMP - AIR TEMPERATURE.    DP   - DEWPOINT TEMPERATURE.
      RH  - RELATIVE HUMIDITY.  PRES - PRESSURE.
      HX  - HEAT INDEX.         WCI  - WIND CHILL INDEX.

*  THESE STATIONS ARE NOT NWS OR FAA STATIONS AND ARE NOT UNDER
   NWS QUALITY CONTROL.

LAZ040-048-061>063-065-066-069-030700-
SOUTHEAST LOUISIANA

CITY           SKY/WX    TMP DP  RH WIND       PRES   REMARKS
N.O. AUDUBON     N/A    N/A N/A N/A MISG        N/A
6HR MIN TEMP:  62; 6HR MAX TEMP:  70; 6HR PCP:  0.02;

N.O. INTL ARPT FOG       67  66  97 S6        30.18F VSB 1/16
6HR MIN TEMP:  65; 6HR MAX TEMP:  71; 6HR PCP: TRACE;

N.O. LAKEFRONT CLOUDY    62  59  90 CALM      30.19F
6HR MIN TEMP:  61; 6HR MAX TEMP:  69;

SLIDELL        FOG       65  65 100 CALM      30.18F VSB 1
6HR MIN TEMP:  65; 6HR MAX TEMP:  70; 6HR PCP:  0.03;

BATON ROUGE    FOG       56  56 100 CALM      30.17F VSB 1/2
6HR MIN TEMP:  56; 6HR MAX TEMP:  63;

BOOTHVILLE     FOG       64  64 100 SE3       30.19F VSB 1/2
6HR MIN TEMP:  64; 6HR MAX TEMP:  72;

BELLE CHASSE   FOG       67  64  90 CALM      30.17F VSB 1/2
6HR MIN TEMP:  65; 6HR MAX TEMP:  69; 6HR PCP:  0.01;

BOGALUSA*      FOG       65  62  91 CALM      30.19F VSB 1/2
6HR MIN TEMP:  65; 6HR MAX TEMP:  66;

GALLIANO*      FOG       57  57  99 CALM      30.18F VSB 1/4
6HR MIN TEMP:  57; 6HR MAX TEMP:  75;

NEW ROADS*     NOT AVBL
GONZALES*      NOT AVBL
HAMMOND*       NOT AVBL
HOUMA*         HVY RAIN  67  67 100 CALM      30.17F VSB 1/4
6HR MIN TEMP:  66; 6HR MAX TEMP:  73;

PORT FOURCHON* NOT AVBL

$$

LAZ041-044-053-054-030700-
SOUTHWEST LOUISIANA

CITY           SKY/WX    TMP DP  RH WIND       PRES   REMARKS
LAKE CHARLES   FOG       53  53 100 NE7       30.17F VSB 3/4
6HR MIN TEMP:  53; 6HR MAX TEMP:  57;

LAFAYETTE      FOG       53  53 100 NE3       30.17F VSB 1/4
6HR MIN TEMP:  53; 6HR MAX TEMP:  54;

PATTERSON      CLOUDY    66  64  94 E6        30.17F
6HR MIN TEMP:  64; 6HR MAX TEMP:  72;

SALT POINT       N/A     65  65 100 CALM      30.15F
6HR MIN TEMP:  63; 6HR MAX TEMP:  68;

NEW IBERIA     FOG       57  55  93 NE5       30.18F VSB 1/2
6HR MIN TEMP:  56; 6HR MAX TEMP:  60;

CHENAULT AIRPK CLOUDY    53  53 100 E5        30.18F FOG
6HR MIN TEMP:  53; 6HR MAX TEMP:  56;


$$

LAZ027-028-030700-
CENTRAL LOUISIANA

CITY           SKY/WX    TMP DP  RH WIND       PRES   REMARKS
FORT POLK      FOG       47  47  98 E3        30.17F VSB 3/4
6HR MIN TEMP:  47; 6HR MAX TEMP:  50;

ALEXANDRIA INT FOG       44  44 100 NE5       30.18F VSB 1/2
6HR MIN TEMP:  44; 6HR MAX TEMP:  47;

ALEXANDRIA     CLOUDY    44  43  96 E3        30.20F
6HR MIN TEMP:  43; 6HR MAX TEMP:  46;


$$

LAZ001-002-030700-
NORTHWEST LOUISIANA

CITY           SKY/WX    TMP DP  RH WIND       PRES   REMARKS
SHREVEPORT     DRIZZLE   42  41  96 E7        30.18F FOG
6HR MIN TEMP:  42; 6HR MAX TEMP:  43; 6HR PCP: TRACE;

BARKSDALE AFB  CLOUDY    41  40  99 CALM      30.19F
6HR MIN TEMP:  41; 6HR MAX TEMP:  42;

DTN SHREVEPORT CLOUDY    41  38  89 SE6       30.20F FOG
6HR MIN TEMP:  41; 6HR MAX TEMP:  42;


$$

LAZ014-016-030700-
NORTHEAST LOUISIANA

CITY           SKY/WX    TMP DP  RH WIND       PRES   REMARKS
MONROE         FOG       40  40 100 NE3       30.22F VSB 3/4
6HR MIN TEMP:  40; 6HR MAX TEMP:  40;

TALLULAH       CLOUDY    44  43  96 CALM      30.20F FOG
6HR MIN TEMP:  44; 6HR MAX TEMP:  45;


$$




USA.gov is the U.S. government's official web portal to all federal, state and local government web resources and services.